TimeEDT,TemperatureF,Dew PointF,Humidity,Sea Level PressureIn,VisibilityMPH,Wind Direction,Wind SpeedMPH,Gust SpeedMPH,PrecipitationIn,Events,Conditions,WindDirDegrees,DateUTC
12:35 AM,55.4,53.6,94,30.14,10.0,NE,3.5,-,N/A,,Scattered Clouds,40,2012-10-09 04:35:00
12:55 AM,55.4,53.6,94,30.14,10.0,NE,3.5,-,N/A,,Clear,50,2012-10-09 04:55:00
1:15 AM,55.4,53.6,94,30.13,10.0,NNE,3.5,-,N/A,,Clear,30,2012-10-09 05:15:00
1:55 AM,53.6,53.6,100,30.13,10.0,NE,4.6,-,N/A,,Clear,40,2012-10-09 05:55:00
2:15 AM,53.6,53.6,100,30.13,10.0,NE,4.6,-,N/A,,Clear,40,2012-10-09 06:15:00
2:35 AM,53.6,53.6,100,30.13,10.0,NNE,3.5,-,N/A,,Clear,30,2012-10-09 06:35:00
2:55 AM,53.6,53.6,100,30.13,10.0,NE,4.6,-,N/A,,Clear,40,2012-10-09 06:55:00
3:35 AM,53.6,53.6,100,30.12,10.0,NE,3.5,-,N/A,,Overcast,40,2012-10-09 07:35:00
3:55 AM,53.6,53.6,100,30.12,10.0,NNE,5.8,-,N/A,,Overcast,30,2012-10-09 07:55:00
4:15 AM,53.6,53.6,100,30.12,10.0,NNE,3.5,-,N/A,,Overcast,30,2012-10-09 08:15:00
4:35 AM,53.6,53.6,100,30.12,10.0,NE,8.1,-,N/A,,Overcast,40,2012-10-09 08:35:00
4:55 AM,53.6,51.8,94,30.12,10.0,NNE,6.9,-,N/A,,Overcast,30,2012-10-09 08:55:00
5:15 AM,53.6,51.8,94,30.12,10.0,NNE,6.9,-,N/A,,Overcast,30,2012-10-09 09:15:00
5:35 AM,53.6,51.8,94,30.13,10.0,NNE,5.8,-,N/A,,Overcast,20,2012-10-09 09:35:00
5:55 AM,53.6,51.8,94,30.14,10.0,NNE,5.8,-,N/A,,Overcast,30,2012-10-09 09:55:00
6:15 AM,53.6,51.8,94,30.14,10.0,NE,6.9,-,N/A,,Overcast,40,2012-10-09 10:15:00
6:35 AM,53.6,51.8,94,30.15,10.0,ENE,4.6,-,N/A,,Overcast,60,2012-10-09 10:35:00
6:55 AM,53.6,51.8,94,30.15,10.0,NNE,5.8,-,N/A,,Overcast,30,2012-10-09 10:55:00
7:15 AM,53.6,51.8,94,30.15,10.0,NE,4.6,-,N/A,,Overcast,50,2012-10-09 11:15:00
7:35 AM,53.6,51.8,94,30.16,10.0,NE,5.8,-,N/A,,Overcast,40,2012-10-09 11:35:00
7:55 AM,53.6,51.8,94,30.16,10.0,NE,4.6,-,N/A,,Overcast,40,2012-10-09 11:55:00
8:15 AM,55.4,53.6,94,30.17,10.0,NE,3.5,-,N/A,,Overcast,50,2012-10-09 12:15:00
8:35 AM,55.4,53.6,94,30.17,10.0,East,3.5,-,N/A,,Overcast,80,2012-10-09 12:35:00
8:55 AM,55.4,53.6,94,30.17,10.0,ENE,5.8,-,N/A,,Overcast,70,2012-10-09 12:55:00
9:15 AM,55.4,53.6,94,30.18,10.0,NE,5.8,-,N/A,,Overcast,50,2012-10-09 13:15:00
9:35 AM,55.4,53.6,94,30.18,10.0,ENE,5.8,-,N/A,,Overcast,70,2012-10-09 13:35:00
9:55 AM,55.4,53.6,94,30.18,10.0,East,5.8,-,N/A,,Overcast,80,2012-10-09 13:55:00
10:15 AM,57.2,53.6,88,30.18,10.0,NNE,3.5,-,N/A,,Overcast,30,2012-10-09 14:15:00
10:35 AM,59.0,53.6,82,30.19,10.0,Calm,Calm,-,N/A,,Overcast,0,2012-10-09 14:35:00
10:55 AM,59.0,51.8,77,30.18,10.0,ENE,6.9,-,N/A,,Overcast,70,2012-10-09 14:55:00
11:15 AM,59.0,51.8,77,30.18,10.0,ENE,4.6,-,N/A,,Overcast,60,2012-10-09 15:15:00
11:35 AM,60.8,51.8,72,30.17,10.0,ENE,6.9,-,N/A,,Overcast,60,2012-10-09 15:35:00
11:55 AM,60.8,51.8,72,30.17,10.0,NE,5.8,-,N/A,,Overcast,40,2012-10-09 15:55:00
12:15 PM,62.6,51.8,68,30.17,10.0,NNE,3.5,-,N/A,,Mostly Cloudy,20,2012-10-09 16:15:00
12:35 PM,64.4,51.8,64,30.16,10.0,East,5.8,-,N/A,,Mostly Cloudy,80,2012-10-09 16:35:00
12:55 PM,64.4,51.8,64,30.15,10.0,ESE,4.6,-,N/A,,Mostly Cloudy,110,2012-10-09 16:55:00
1:15 PM,66.2,51.8,60,30.13,10.0,Calm,Calm,-,N/A,,Mostly Cloudy,0,2012-10-09 17:15:00
1:35 PM,68.0,51.8,56,30.14,10.0,Calm,Calm,-,N/A,,Scattered Clouds,0,2012-10-09 17:35:00
1:55 PM,68.0,51.8,56,30.12,10.0,Calm,Calm,-,N/A,,Scattered Clouds,0,2012-10-09 17:55:00
2:15 PM,69.8,51.8,53,30.11,10.0,East,3.5,-,N/A,,Scattered Clouds,100,2012-10-09 18:15:00
2:35 PM,69.8,51.8,53,30.10,10.0,Calm,Calm,-,N/A,,Scattered Clouds,0,2012-10-09 18:35:00
2:55 PM,71.6,51.8,50,30.10,10.0,ENE,4.6,-,N/A,,Scattered Clouds,70,2012-10-09 18:55:00
3:15 PM,71.6,53.6,53,30.09,10.0,Calm,Calm,-,N/A,,Scattered Clouds,0,2012-10-09 19:15:00
3:35 PM,69.8,51.8,53,30.09,10.0,Calm,Calm,-,N/A,,Clear,0,2012-10-09 19:35:00
3:55 PM,69.8,51.8,53,30.09,10.0,Calm,Calm,-,N/A,,Mostly Cloudy,0,2012-10-09 19:55:00
4:15 PM,71.6,51.8,50,30.08,10.0,East,3.5,-,N/A,,Mostly Cloudy,80,2012-10-09 20:15:00
4:35 PM,73.4,53.6,50,30.08,10.0,South,3.5,-,N/A,,Overcast,180,2012-10-09 20:35:00
4:55 PM,73.4,53.6,50,30.08,10.0,Calm,Calm,-,N/A,,Overcast,0,2012-10-09 20:55:00
5:15 PM,69.8,53.6,56,30.08,10.0,Calm,Calm,-,N/A,,Overcast,0,2012-10-09 21:15:00
5:35 PM,69.8,53.6,56,30.08,10.0,Calm,Calm,-,N/A,,Mostly Cloudy,0,2012-10-09 21:35:00
5:55 PM,69.8,53.6,56,30.08,10.0,Calm,Calm,-,N/A,,Overcast,0,2012-10-09 21:55:00
6:15 PM,69.8,55.4,60,30.08,10.0,Calm,Calm,-,N/A,,Overcast,0,2012-10-09 22:15:00
6:35 PM,69.8,55.4,60,30.08,10.0,Calm,Calm,-,N/A,,Overcast,0,2012-10-09 22:35:00
6:55 PM,68.0,55.4,64,30.08,10.0,Calm,Calm,-,N/A,,Overcast,0,2012-10-09 22:55:00
7:15 PM,66.2,55.4,68,30.09,10.0,Calm,Calm,-,N/A,,Mostly Cloudy,0,2012-10-09 23:15:00
7:35 PM,64.4,57.2,77,30.09,10.0,Calm,Calm,-,N/A,,Mostly Cloudy,0,2012-10-09 23:35:00
7:55 PM,62.6,59.0,88,30.09,10.0,Calm,Calm,-,N/A,,Mostly Cloudy,0,2012-10-09 23:55:00
8:15 PM,62.6,59.0,88,30.09,10.0,Calm,Calm,-,N/A,,Mostly Cloudy,0,2012-10-10 00:15:00
8:35 PM,60.8,59.0,94,30.09,10.0,Calm,Calm,-,N/A,,Scattered Clouds,0,2012-10-10 00:35:00
8:55 PM,62.6,59.0,88,30.09,10.0,Calm,Calm,-,N/A,,Clear,0,2012-10-10 00:55:00
9:15 PM,59.0,57.2,94,30.10,10.0,Calm,Calm,-,N/A,,Clear,0,2012-10-10 01:15:00
9:35 PM,57.2,55.4,94,30.10,10.0,Calm,Calm,-,N/A,,Scattered Clouds,0,2012-10-10 01:35:00
9:55 PM,57.2,57.2,100,30.11,10.0,Calm,Calm,-,N/A,,Scattered Clouds,0,2012-10-10 01:55:00
10:15 PM,57.2,55.4,94,30.12,10.0,Calm,Calm,-,N/A,,Scattered Clouds,0,2012-10-10 02:15:00
10:35 PM,55.4,55.4,100,30.12,10.0,Calm,Calm,-,N/A,,Scattered Clouds,0,2012-10-10 02:35:00
10:55 PM,55.4,55.4,100,30.13,7.0,Calm,Calm,-,N/A,,Mostly Cloudy,0,2012-10-10 02:55:00
11:15 PM,59.0,59.0,100,30.13,7.0,Calm,Calm,-,N/A,,Overcast,0,2012-10-10 03:15:00
11:35 PM,59.0,59.0,100,30.13,10.0,Calm,Calm,-,N/A,,Mostly Cloudy,0,2012-10-10 03:35:00
11:55 PM,57.2,57.2,100,30.13,7.0,Calm,Calm,-,N/A,,Scattered Clouds,0,2012-10-10 03:55:00